Other Surface Observations
Issued by NWS

Current Version | Previous Version | Text Only | Print | Product List | Glossary On
Versions: 1 2 3 4 5 6 7 8 9 10 11 12 13 14 15 16 17 18 19 20 21 22 23 24 25 26 27 28 29 30 31 32 33 34 35 36 37 38 39 40 41 42 43 44 45 46 47 48 49 50
000
SXUS52 KTAE 272210
OSOTAE
OSOTAE
North Florida/South Alabama/Southwest Georgia Weather Roundup
National Weather Service Tallahassee Florida
600 PM EDT WED MAY 27 2015

Note: "fair" indicates few or no clouds below 12,000 feet with no
significant weather and/or obstructions to visibility.

!FLZ017-115-028-034-025-272300
...North Florida...

CITY           SKY/WX    TMP DP  RH WIND       PRES   REMARKS
TALLAHASSEE    CLOUDY    79  73  82 NW6       30.14F
APALACHICOLA   CLOUDY    84  72  67 VRB5      30.14S
PERRY          PTSUNNY   82  70  66 W6        30.14R
CROSS CITY       N/A     90  64  42 E6        30.11F HX  91
JACKSONVILLE   PTSUNNY   83  63  50 E10       30.16S
$$

!FLZ112-006-005-002-011-272300
...Florida Panhandle...

CITY           SKY/WX    TMP DP  RH WIND       PRES   REMARKS
MARIANNA       CLOUDY    76  73  91 S7        30.15S
BONIFAY        MOCLDY    74  70  87 S3        30.15F
PANAMA CITY NW FAIR      78  69  73 E5        30.13F
TYNDALL AFB    NOT AVBL
TYND DRONE APT FAIR      75  73  92 NE6       30.12F
DE FUNIAK SPR  FAIR      70  69  96 MISG      30.13F
EGLIN AFB      PTSUNNY   81  71  69 SE6       30.11F
DESTIN         PTSUNNY   83  74  74 S8        30.11F
HURLBURT       PTSUNNY   83  73  71 SE7       30.10F
CRESTVIEW      CLOUDY    77  68  73 SE3       30.13F
PENSACOLA      CLOUDY    80  73  79 S10       30.11F
$$

!ALZ063-066-272300
...South Alabama...

CITY           SKY/WX    TMP DP  RH WIND       PRES   REMARKS
DOTHAN         PTSUNNY   84  69  60 S8        30.18R THUNDER
OZARK CAIRNS   TSTM      72  70  94 VRB2      30.13F FOG
FT RUCKER HELI CLOUDY    77  70  79 S8        30.12F THUNDER
RUCKER HELI 3  FAIR      77  68  73 S10G17    30.13F
RUCKER HELI 2  TSTM      73  71  93 VRB7G18   30.14R
FLORALA APT    LGT RAIN  71  68  90 CALM      30.13
ANDALUSIA      CLOUDY    77  69  76 CALM      30.11F
TROY           CLOUDY    77  69  76 SW5       30.12F
EUFALA         FAIR      87  71  58 VRB6      30.11F HX  93
MOBILE         CLOUDY    76  70  82 SE3       30.12S THUNDER
$$

!GAZ120>161-272300
...Southwest and South Central Georgia...

CITY           SKY/WX    TMP DP  RH WIND       PRES   REMARKS
THOMASVILLE    LGT RAIN  79  72  78 NW6       30.16S
BAINBRIDGE     TSTM      73  72  94 SW3       30.16F
MOODY AFB      CLOUDY    82  68  62 NE7       30.13F
VALDOSTA       PTSUNNY   85  68  56 E3        30.13F
MOULTRIE       CLOUDY    77  72  83 CALM      30.16S
BLAKELY        RAIN      73  72  94 CALM      30.17R
ALBANY         PTSUNNY   84  68  58 S15       30.15F
TIFTON         PTSUNNY   80  68  65 CALM      30.15F
FITZGERALD     CLOUDY    83  67  57 SE8       30.17S
CORDELE        FAIR      88  70  56 SE7       30.14F HX  92
AMERICUS       FAIR      88  66  48 S3        30.15F HX  90
HOMERVILLE     FAIR      88  64  45 SE9       30.14F
$$

!GMZ750-755-770-775-272300
...Coastal and Buoy Obs...

STATION/POSITION TIME  TEMP    WIND        PRES    VSBY  WAVE
                       AIR SEA DIR/SP/G                  HT/PER
                 (UTC) (F)     (DEG/KT/KT) (MB)    (MI)  (FT/S)
KEATON BEACH     2100   81     240/  8/ 10 1020.6F
CEDAR KEY        2100   83     250/  6/  8 1020.1F
C TOWER          2100   79     130/ 11/ 12 1020.4F
APALACHICOLA BUO 2050   80 81  100/  8/ 10 1020.5          3/ 5
PANAMA CITY BUOY 2050   81 82  130/  6/  8 1020.2          4/ 6
MOBILE BUOY      2050   81 82  130/  2/  4 1019.6          3/ 7
ORANGE BCH AL BU 2050   81 81  170/  6/  8 1019.5          3/ 8
$$



USA.gov is the U.S. government's official web portal to all federal, state and local government web resources and services.